Weather History for White Plains, NY

Change the Weather History Date:

Saturday, September 21, 2013

  Actual Average Record
Temperature  
Mean Temperature 62 °F -  
Max Temperature 73 °F 69 °F 85 °F (1980)
Min Temperature 52 °F 52 °F 43 °F (1991)
Degree Days  
Heating Degree Days 2    
Growing Degree Days 12 (Base 50)    
Moisture  
Dew Point 61 °F    
Average Humidity 87    
Maximum Humidity 100    
Minimum Humidity 73    
Precipitation  
Precipitation 0.00 in - - ()
Sea Level Pressure  
Sea Level Pressure 29.87 in    
Wind  
Wind Speed 5 mph (SSE)    
Max Wind Speed 17 mph    
Max Gust Speed 28 mph    
Visibility 7 miles    
Events Rain    
Averages and records for this station are not official NWS values.
T = Trace of Precipitation, MM = Missing Value Source: NWS Daily Summary

Daily Weather History Graph

Daily Weather History Graph

Search for Another Location

Airport:

Trip Planner

Search our weather history database for the weather conditions in past years. The results will help you decide how hot, cold, wet, or windy it might be!

Date:

Astronomy

Sep. 21, 2013 Rise Set
Actual Time 6:41 AM EDT 6:53 PM EDT
Civil Twilight 6:14 AM EDT 7:20 PM EDT
Nautical Twilight 5:41 AM EDT 7:52 PM EDT
Astronomical Twilight 5:08 AM EDT 8:25 PM EDT
Moon 8:00 PM EDT (9/21) 8:58 AM EDT (9/21)
Length of Visible Light 13h 06m
Length of Day
12h 11m
Waning Gibbous, 94% of the Moon is Illuminated
Sep 21
Waning Gibbous
Sep 26
Last Quarter
Oct 4
New
Oct 11
First Quarter
Oct 18
Full

Hourly Weather History & Observations

Time (EDT) Temp. Dew Point Humidity Pressure Visibility Wind Dir Wind Speed Gust Speed Precip Events Conditions
12:56 AM 61.0 °F 57.0 °F 87% 30.01 in 10.0 mi South 3.5 mph - N/A   Clear
1:56 AM 60.1 °F 57.0 °F 90% 30.01 in 10.0 mi Calm Calm - N/A   Clear
2:22 AM 57.2 °F 55.4 °F 94% 30.01 in 1.8 mi Calm Calm - N/A   Partly Cloudy
2:32 AM 57.2 °F 55.4 °F 94% 30.01 in 4.0 mi Calm Calm - N/A   Mostly Cloudy
2:56 AM 57.0 °F 55.9 °F 96% 29.99 in 5.0 mi Calm Calm - N/A   Mostly Cloudy
3:56 AM 59.0 °F 57.0 °F 93% 29.97 in 6.0 mi SE 4.6 mph - N/A   Mostly Cloudy
4:33 AM 57.2 °F 55.4 °F 94% 29.98 in 1.5 mi Calm Calm - N/A   Mostly Cloudy
4:43 AM 57.2 °F 55.4 °F 94% 29.98 in 0.8 mi Calm Calm - N/A   Overcast
4:56 AM 55.9 °F 55.0 °F 97% 29.97 in 0.8 mi Calm Calm - N/A   Overcast
5:07 AM 55.4 °F 55.4 °F 100% 29.98 in 0.8 mi Calm Calm - N/A   Overcast
5:56 AM 55.0 °F 54.0 °F 96% 29.97 in 0.8 mi Calm Calm - N/A   Overcast
6:02 AM 55.4 °F 53.6 °F 94% 29.97 in 8.0 mi Calm Calm - N/A   Scattered Clouds
6:56 AM 52.0 °F 51.1 °F 97% 29.98 in 10.0 mi Calm Calm - N/A   Scattered Clouds
7:56 AM 59.0 °F 57.9 °F 96% 29.97 in 10.0 mi Calm Calm - N/A   Scattered Clouds
8:56 AM 63.0 °F 59.0 °F 87% 29.96 in 10.0 mi South 4.6 mph - N/A   Mostly Cloudy
9:56 AM 64.9 °F 59.0 °F 81% 29.94 in 10.0 mi SE 6.9 mph - N/A   Overcast
10:10 AM 64.4 °F 59.0 °F 83% 29.93 in 10.0 mi South 4.6 mph - N/A   Overcast
10:56 AM 66.0 °F 62.1 °F 87% 29.91 in 10.0 mi SE 8.1 mph - 0.00 in   Light Drizzle
11:56 AM 66.9 °F 62.1 °F 84% 29.89 in 8.0 mi ESE 6.9 mph - 0.00 in   Mostly Cloudy
12:56 PM 68.0 °F 64.0 °F 87% 29.86 in 8.0 mi SE 9.2 mph - N/A   Mostly Cloudy
1:38 PM 71.6 °F 64.4 °F 78% 29.85 in 8.0 mi SSE 15.0 mph 23.0 mph N/A   Mostly Cloudy
1:56 PM 72.0 °F 64.0 °F 76% 29.83 in 8.0 mi SSE 11.5 mph 17.3 mph N/A   Mostly Cloudy
2:34 PM 73.4 °F 64.4 °F 73% 29.82 in 8.0 mi SSE 17.3 mph 24.2 mph N/A   Mostly Cloudy
2:56 PM 73.0 °F 64.0 °F 73% 29.80 in 10.0 mi SSE 17.3 mph 27.6 mph N/A   Mostly Cloudy
3:56 PM 72.0 °F 64.0 °F 76% 29.78 in 10.0 mi South 10.4 mph 26.5 mph N/A   Mostly Cloudy
4:56 PM 72.0 °F 64.0 °F 76% 29.77 in 10.0 mi South 15.0 mph 27.6 mph N/A   Mostly Cloudy
5:56 PM 71.1 °F 64.0 °F 78% 29.76 in 10.0 mi South 15.0 mph 26.5 mph N/A   Mostly Cloudy
6:56 PM 70.0 °F 64.0 °F 81% 29.75 in 10.0 mi South 11.5 mph 19.6 mph N/A   Mostly Cloudy
7:03 PM 69.8 °F 64.4 °F 83% 29.75 in 10.0 mi South 15.0 mph 21.9 mph N/A   Overcast
7:16 PM 69.8 °F 64.4 °F 83% 29.75 in 10.0 mi SSE 11.5 mph 21.9 mph N/A   Mostly Cloudy
7:56 PM 69.1 °F 64.9 °F 87% 29.74 in 10.0 mi SSE 11.5 mph 20.7 mph N/A   Mostly Cloudy
8:56 PM 69.1 °F 64.9 °F 87% 29.73 in 10.0 mi South 9.2 mph 18.4 mph N/A   Mostly Cloudy
9:56 PM 70.0 °F 64.9 °F 84% 29.70 in 10.0 mi SSE 12.7 mph 19.6 mph N/A   Overcast
10:56 PM 69.1 °F 66.0 °F 90% 29.69 in 10.0 mi SSE 10.4 mph 17.3 mph 0.00 in   Drizzle
11:37 PM 69.8 °F 66.2 °F 88% 29.68 in 2.5 mi South 8.1 mph 16.1 mph N/A Rain Heavy Rain
11:51 PM 68.0 °F 66.2 °F 94% 29.68 in 3.0 mi South 8.1 mph 17.3 mph N/A Rain Rain
11:56 PM 69.1 °F 66.9 °F 93% 29.67 in 5.0 mi South 11.5 mph 17.3 mph N/A Rain Light Rain